Esler Regional Airport
KESF : now visible

Airfield :











YOU CAN JOIN US ON...

 
LOGIN :

Register | Disclaimer

   EN    FR    IT 

 









Legend :    VFR   Marginal VFR   IFR   Intensive IFR   Very Intensive IFR
Visi :
Ceiling :
>= 8 km
>= 3000ft
5 to 8 km
1000 to 3000 ft
1500m to 5 km
500 to 1000 ft
800 to 1500m
200 to 500 ft
< 800m
< 200 ft
Symbols :   Thunderstorms  Fog  Heavy snow  Heavy precipitations  Wind > 20 kt






- Airport Elevation : 112 ft


KESF - Esler Regional

CURRENT METAR :
  • 241053Z AUTO 28003KT 10SM CLR 05/02 A3006 RMK AO2 SLP178 T00500022 $

EXPIRED METARs :
  • 240953Z AUTO 00000KT 10SM CLR 06/03 A3005 RMK AO2 SLP174 T00560028 $
  • 240853Z AUTO 00000KT 10SM CLR 07/02 A3005 RMK AO2 SLP175 T00670022 58001 $
  • 240753Z AUTO 00000KT 10SM CLR 07/02 A3006 RMK AO2 SLP177 T00720022 $
  • 240653Z AUTO 00000KT 10SM CLR 08/03 A3005 RMK AO2 SLP176 T00830028 $

TAF N/A
KZHU FIR / North America



MET'MAP, your aeronautical weather chart ! - Copyright ORBIFLY December 2007 - Disclaimer

ORBIFLY MET'MAP TEAM :

Programming & Development : Alexandra Zaïnal
Original concept : Baudouin d'Aumeries
Technical & hardware support : Manuel Goepfert
Assistance : Marc-Olivier Méhu




SOURCES & CREDITS :

   NOAA       Earth
Advisory